• In Belgien
  • Länderverzeichnis
  • Für 7 Tage
  • Wassertemperatur
  • Satellitenkarten
  • Wetterkarte
  • Widgets
  • user-avatar
    Anmelden

    Stündliche Wetter Indianapolis

    Heute, 23 Juni, Samstag

    Zeit Temperatur Niederschläge Wind Luftdruck Luftfeuchtigkeit
    00:00 +18°C° 0 mm 3 m/S 734 mmHg 96%
    01:00 +18°C° 0 mm 3 m/S 734 mmHg 96%
    02:00 +18°C° 0 mm 3 m/S 734 mmHg 97%
    03:00 +18°C° 0 mm 3 m/S 734 mmHg 97%
    04:00 +18°C° 0 mm 3 m/S 735 mmHg 96%
    05:00 +18°C° 0 mm 3 m/S 735 mmHg 95%
    06:00 +18°C° 0 mm 3 m/S 736 mmHg 94%
    07:00 +19°C° 0 mm 3 m/S 736 mmHg 93%
    08:00 +19°C° 0 mm 4 m/S 736 mmHg 91%
    09:00 +20°C° 0 mm 4 m/S 737 mmHg 89%
    10:00 +21°C° 0,1 mm 4 m/S 737 mmHg 86%
    11:00 +22°C° 0,1 mm 4 m/S 737 mmHg 83%
    12:00 +22°C° 0,1 mm 4 m/S 737 mmHg 80%
    13:00 +23°C° 0,1 mm 4 m/S 737 mmHg 80%
    14:00 +23°C° 0,1 mm 4 m/S 737 mmHg 80%
    15:00 +23°C° 0,1 mm 4 m/S 737 mmHg 79%
    16:00 +24°C° 0 mm 3 m/S 737 mmHg 81%
    17:00 +24°C° 0 mm 3 m/S 737 mmHg 83%
    18:00 +24°C° 0 mm 3 m/S 737 mmHg 84%
    19:00 +22°C° 0 mm 3 m/S 737 mmHg 87%
    20:00 +21°C° 0 mm 2 m/S 738 mmHg 91%
    21:00 +20°C° 0 mm 2 m/S 738 mmHg 94%
    22:00 +19°C° 0 mm 2 m/S 738 mmHg 94%
    23:00 +19°C° 0 mm 2 m/S 738 mmHg 95%

    Morgen, 24 Juni, Sonntag

    Zeit Temperatur Niederschläge Wind Luftdruck Luftfeuchtigkeit
    00:00 +19°C° 0 mm 2 m/S 738 mmHg 95%
    01:00 +20°C° 0 mm 1 m/S 738 mmHg 95%
    02:00 +20°C° 0 mm 1 m/S 739 mmHg 95%
    03:00 +19°C° 0 mm 1 m/S 739 mmHg 96%
    04:00 +20°C° 0 mm 1 m/S 739 mmHg 94%
    05:00 +21°C° 0 mm 1 m/S 739 mmHg 93%
    06:00 +21°C° 0 mm 1 m/S 739 mmHg 91%
    07:00 +23°C° 0 mm 1 m/S 740 mmHg 85%
    08:00 +25°C° 0 mm 1 m/S 740 mmHg 79%
    09:00 +26°C° 0 mm 1 m/S 740 mmHg 74%
    10:00 +27°C° 0,2 mm 1 m/S 740 mmHg 71%
    11:00 +28°C° 0,2 mm 1 m/S 740 mmHg 69%
    12:00 +27°C° 0,2 mm 0 m/S 741 mmHg 66%
    13:00 +29°C° 0,1 mm 1 m/S 740 mmHg 65%
    14:00 +30°C° 0,1 mm 1 m/S 740 mmHg 63%
    15:00 +30°C° 0,1 mm 1 m/S 740 mmHg 62%
    16:00 +29°C° 0,1 mm 1 m/S 740 mmHg 66%
    17:00 +29°C° 0,1 mm 1 m/S 741 mmHg 70%
    18:00 +28°C° 0,1 mm 2 m/S 741 mmHg 73%
    19:00 +27°C° 0 mm 2 m/S 741 mmHg 75%
    20:00 +25°C° 0 mm 2 m/S 741 mmHg 77%
    21:00 +24°C° 0 mm 2 m/S 742 mmHg 79%
    22:00 +22°C° 0 mm 3 m/S 742 mmHg 82%
    23:00 +21°C° 0 mm 3 m/S 742 mmHg 85%

    übermorgen, 25 Juni, Montag

    Zeit Temperatur Niederschläge Wind Luftdruck Luftfeuchtigkeit
    00:00 +21°C° 0 mm 3 m/S 742 mmHg 87%
    01:00 +20°C° 0 mm 3 m/S 742 mmHg 88%
    02:00 +20°C° 0 mm 3 m/S 743 mmHg 89%
    03:00 +20°C° 0 mm 3 m/S 743 mmHg 90%
    04:00 +20°C° 0 mm 3 m/S 743 mmHg 90%
    05:00 +20°C° 0 mm 4 m/S 743 mmHg 90%
    06:00 +21°C° 0 mm 4 m/S 744 mmHg 89%
    07:00 +22°C° 0 mm 4 m/S 744 mmHg 86%
    08:00 +25°C° 0 mm 4 m/S 744 mmHg 82%
    09:00 +26°C° 0 mm 4 m/S 744 mmHg 79%
    10:00 +28°C° 0 mm 4 m/S 744 mmHg 76%
    11:00 +29°C° 0 mm 4 m/S 744 mmHg 73%
    12:00 +30°C° 0 mm 4 m/S 744 mmHg 70%
    13:00 +30°C° 0,3 mm 4 m/S 744 mmHg 70%
    14:00 +32°C° 0,3 mm 4 m/S 743 mmHg 70%
    15:00 +32°C° 0,3 mm 4 m/S 743 mmHg 70%
    16:00 +30°C° 0,5 mm 3 m/S 743 mmHg 74%
    17:00 +29°C° 0,5 mm 3 m/S 743 mmHg 78%
    18:00 +29°C° 0,5 mm 3 m/S 743 mmHg 82%
    19:00 +27°C° 1,2 mm 3 m/S 744 mmHg 85%
    20:00 +26°C° 1,2 mm 3 m/S 744 mmHg 88%
    21:00 +25°C° 1,2 mm 3 m/S 744 mmHg 90%
    22:00 +25°C° 0,1 mm 4 m/S 744 mmHg 91%
    23:00 +25°C° 0,1 mm 4 m/S 743 mmHg 91%

    26 Juni, Dienstag

    Zeit Temperatur Niederschläge Wind Luftdruck Luftfeuchtigkeit
    00:00 +23°C° 0,1 mm 4 m/S 743 mmHg 92%
    01:00 +23°C° 0 mm 4 m/S 743 mmHg 92%
    02:00 +23°C° 0 mm 4 m/S 743 mmHg 93%
    03:00 +22°C° 0 mm 3 m/S 742 mmHg 94%
    04:00 +22°C° 2,6 mm 3 m/S 743 mmHg 94%
    05:00 +24°C° 2,6 mm 3 m/S 743 mmHg 94%
    06:00 +24°C° 2,6 mm 3 m/S 743 mmHg 94%
    07:00 +26°C° 0,5 mm 4 m/S 743 mmHg 91%
    08:00 +27°C° 0,5 mm 4 m/S 743 mmHg 88%
    09:00 +29°C° 0,5 mm 5 m/S 742 mmHg 84%
    10:00 +30°C° 0 mm 5 m/S 742 mmHg 79%
    11:00 +32°C° 0 mm 6 m/S 742 mmHg 73%
    12:00 +33°C° 0 mm 7 m/S 741 mmHg 68%
    13:00 +33°C° 1,3 mm 6 m/S 741 mmHg 71%
    14:00 +32°C° 1,3 mm 6 m/S 741 mmHg 75%
    15:00 +30°C° 1,3 mm 6 m/S 740 mmHg 79%
    16:00 +30°C° 1 mm 6 m/S 740 mmHg 81%
    17:00 +29°C° 1 mm 5 m/S 740 mmHg 83%
    18:00 +29°C° 1 mm 4 m/S 740 mmHg 85%
    19:00 +28°C° 0,1 mm 4 m/S 740 mmHg 87%
    20:00 +27°C° 0,1 mm 4 m/S 740 mmHg 89%
    21:00 +26°C° 0,1 mm 4 m/S 740 mmHg 91%
    22:00 +26°C° 2,8 mm 4 m/S 740 mmHg 90%
    23:00 +26°C° 2,8 mm 5 m/S 739 mmHg 89%

    27 Juni, Mittwoch

    Zeit Temperatur Niederschläge Wind Luftdruck Luftfeuchtigkeit
    00:00 +26°C° 2,8 mm 5 m/S 739 mmHg 88%
    01:00 +25°C° 0,1 mm 5 m/S 739 mmHg 89%
    02:00 +25°C° 0,1 mm 4 m/S 738 mmHg 90%
    03:00 +25°C° 0,1 mm 3 m/S 738 mmHg 91%
    04:00 +25°C° 0,3 mm 4 m/S 738 mmHg 91%
    05:00 +25°C° 0,3 mm 4 m/S 738 mmHg 91%
    06:00 +25°C° 0,3 mm 5 m/S 738 mmHg 92%
    07:00 +27°C° 0 mm 6 m/S 738 mmHg 87%
    08:00 +28°C° 0 mm 7 m/S 738 mmHg 82%
    09:00 +29°C° 0 mm 7 m/S 738 mmHg 78%
    10:00 +30°C° 0,3 mm 7 m/S 738 mmHg 78%
    11:00 +30°C° 0,3 mm 7 m/S 738 mmHg 78%
    12:00 +32°C° 0,3 mm 6 m/S 738 mmHg 78%
    13:00 +32°C° 0,5 mm 6 m/S 738 mmHg 77%
    14:00 +32°C° 0,5 mm 6 m/S 738 mmHg 77%
    15:00 +32°C° 0,5 mm 6 m/S 738 mmHg 77%
    16:00 +32°C° 0,1 mm 5 m/S 738 mmHg 79%
    17:00 +30°C° 0,1 mm 4 m/S 738 mmHg 81%
    18:00 +30°C° 0,1 mm 3 m/S 738 mmHg 84%
    19:00 +29°C° 0 mm 3 m/S 738 mmHg 87%
    20:00 +28°C° 0 mm 3 m/S 739 mmHg 90%
    21:00 +27°C° 0 mm 2 m/S 739 mmHg 93%
    22:00 +26°C° 0 mm 2 m/S 739 mmHg 94%
    23:00 +26°C° 0 mm 2 m/S 739 mmHg 94%

    28 Juni, Donnerstag

    Zeit Temperatur Niederschläge Wind Luftdruck Luftfeuchtigkeit
    00:00 +26°C° 0 mm 2 m/S 739 mmHg 95%
    01:00 +26°C° 0 mm 2 m/S 739 mmHg 95%
    02:00 +25°C° 0 mm 1 m/S 739 mmHg 96%
    03:00 +25°C° 0 mm 1 m/S 739 mmHg 96%
    04:00 +26°C° 0,3 mm 2 m/S 739 mmHg 96%
    05:00 +26°C° 0,3 mm 2 m/S 739 mmHg 95%
    06:00 +27°C° 0,3 mm 2 m/S 739 mmHg 95%
    07:00 +27°C° 0,5 mm 3 m/S 739 mmHg 93%
    08:00 +28°C° 0,5 mm 3 m/S 739 mmHg 91%
    09:00 +29°C° 0,5 mm 4 m/S 739 mmHg 89%
    10:00 +30°C° 1 mm 4 m/S 739 mmHg 86%
    11:00 +32°C° 1 mm 4 m/S 739 mmHg 82%
    12:00 +33°C° 1 mm 4 m/S 738 mmHg 79%
    13:00 +31°C° 8,8 mm 3 m/S 738 mmHg 83%
    14:00 +29°C° 8,8 mm 3 m/S 738 mmHg 86%
    15:00 +28°C° 8,8 mm 2 m/S 738 mmHg 90%
    16:00 +28°C° 0 mm 2 m/S 738 mmHg 90%
    17:00 +28°C° 0 mm 1 m/S 739 mmHg 90%
    18:00 +28°C° 0 mm 1 m/S 739 mmHg 90%
    19:00 +28°C° 0 mm 1 m/S 739 mmHg 92%
    20:00 +27°C° 0 mm 2 m/S 739 mmHg 93%
    21:00 +26°C° 0 mm 2 m/S 740 mmHg 95%
    22:00 +25°C° 0 mm 1 m/S 739 mmHg 94%
    23:00 +25°C° 0 mm 1 m/S 739 mmHg 94%
    Mehr zeigen